sat.trackr.live / text

‹ back to catalog

FLOCK 4BE-2

NORAD 60511 · 2024-149AV

PAYLOAD ACTIVE UNKNOWN

§ Identity

Operator
Country
US
Launch date
2024-08-16
Launch site
AFWTR
Launch vehicle
Mass (kg)
RCS (m²)

Purposes: earth_obs

External: N2YO · Heavens-Above · Gunter

§ Orbital elements

Epoch: 2026-08-03T19:03:18.197568Z

Period
92.39 min
Inclination
97.3805°
Eccentricity
0.0003937
Mean motion
15.58559564 rev/d
Perigee alt
389.2 km
Apogee alt
394.5 km
Semi-major
6,770.0 km
B*
1.0040e-3
RAAN
304.6388°
Arg perigee
122.8038°
Mean anomaly
237.3598°
Rev number
10,990

§ Raw data

FLOCK 4BE-21 60511U 24149AV  26215.79396062  .00077325  00000+0  10040-2 0  99912 60511  97.3805 304.6388 0003937 122.8038 237.3598 15.58559564109904

JSON: /api/v1/satellites/60511 · /tle

For live sub-satellite position, see the globe view (requires WebGL).

§ Visibility from observer

Set your observer location to see the next 7 days of passes ≥ 10°. The values pass through the URL so the page stays shareable.

No JS? Fill the form by hand. The geolocation button needs JavaScript.